Weather History for Toronto, ON

Change the Weather History Date:

Thursday, November 15, 2012

  Actual Average Record
Temperature  
Mean Temperature 41 °F -  
Max Temperature 45 °F 40 °F 55 °F (2001)
Min Temperature 37 °F 30 °F 21 °F (1996)
Degree Days  
Heating Degree Days 24    
Moisture  
Dew Point 31 °F    
Average Humidity 65    
Maximum Humidity 75    
Minimum Humidity 52    
Precipitation  
Precipitation 0.00 in 0.09 in - ()
Sea Level Pressure  
Sea Level Pressure 30.41 in    
Wind  
Wind Speed 6 mph ()    
Max Wind Speed 14 mph    
Max Gust Speed -    
Visibility 9.1 miles    
Events      
Averages and records for this station are not official NWS values.
T = Trace of Precipitation, MM = Missing Value Source: Averaged Metar Reports

Daily Weather History Graph

Daily Weather History Graph

Search for Another Location

Airport:

Trip Planner

Search our weather history database for the weather conditions in past years. The results will help you decide how hot, cold, wet, or windy it might be!

Date:

Astronomy

Nov. 15, 2012 Rise Set
Actual Time 7:12 AM EST 4:51 PM EST
Civil Twilight 6:41 AM EST 5:22 PM EST
Nautical Twilight 6:06 AM EST 5:57 PM EST
Astronomical Twilight 5:32 AM EST 6:31 PM EST
Moon 9:08 AM EST (11/15) 6:39 PM EST (11/15)
Length of Visible Light 10h 41m
Length of Day
9h 39m
Waxing Crescent, 5% of the Moon is Illuminated
Nov 15
Waxing Crescent
Nov 20
First Quarter
Nov 28
Full
Dec 6
Last Quarter
Dec 13
New

Hourly Weather History & Observations

Time (EST) Temp. Windchill Dew Point Humidity Pressure Visibility Wind Dir Wind Speed Gust Speed Precip Events Conditions
12:00 AM 39.2 °F 33.0 °F 28.4 °F 65% 30.50 in 9.0 mi SE 9.2 mph - N/A   Overcast
1:00 AM 39 °F - 28 °F 52% 30.49 in 10 mi SE 5.8 mph - -  
1:00 AM 39.2 °F 35.0 °F 28.4 °F 65% 30.49 in 9.0 mi SE 5.8 mph - N/A   Mostly Cloudy
2:00 AM 39.2 °F 37.0 °F 28.4 °F 65% 30.49 in 9.0 mi SE 3.5 mph - N/A   Overcast
3:00 AM 39.2 °F 35.9 °F 28.4 °F 65% 30.47 in 9.0 mi East 4.6 mph - N/A   Overcast
4:00 AM 39.2 °F 37.0 °F 28.4 °F 65% 30.45 in 9.0 mi ESE 3.5 mph - N/A   Overcast
5:00 AM 39.2 °F - 26.6 °F 61% 30.46 in 9.0 mi Calm Calm - N/A   Overcast
6:00 AM 37.4 °F 32.8 °F 28.4 °F 70% 30.44 in 9.0 mi ENE 5.8 mph - N/A   Overcast
7:00 AM 39 °F - 30 °F 59% 30.45 in 10 mi NE 6.9 mph - -   Overcast
7:00 AM 39.2 °F 35.9 °F 30.2 °F 70% 30.45 in 9.0 mi NE 4.6 mph - N/A   Overcast
8:00 AM 41.0 °F 36.4 °F 30.2 °F 65% 30.44 in 9.0 mi ENE 6.9 mph - N/A   Overcast
9:00 AM 42.8 °F 38.6 °F 30.2 °F 61% 30.44 in 9.0 mi ENE 6.9 mph - N/A   Overcast
10:00 AM 42.8 °F 37.5 °F 32.0 °F 66% 30.43 in 9.0 mi ENE 9.2 mph - N/A   Overcast
11:00 AM 44.6 °F 40.2 °F 32.0 °F 61% 30.43 in 9.0 mi East 8.1 mph - N/A   Mostly Cloudy
12:00 PM 44.6 °F 39.7 °F 32.0 °F 61% 30.40 in 9.0 mi East 9.2 mph - N/A   Scattered Clouds
1:00 PM 45 °F - 33 °F 53% 30.38 in 10 mi East 10.4 mph - -  
1:00 PM 44.6 °F 39.2 °F 33.8 °F 66% 30.38 in 9.0 mi ENE 10.4 mph - N/A   Mostly Cloudy
2:00 PM 44.6 °F 38.1 °F 33.8 °F 66% 30.37 in 9.0 mi ENE 13.8 mph - N/A   Mostly Cloudy
2:05 PM 44.6 °F 38.1 °F 33.8 °F 66% 30.37 in 9.0 mi ENE 13.8 mph - N/A   Mostly Cloudy
2:08 PM 42.8 °F 36.6 °F 33.8 °F 70% 30.37 in 9.0 mi ENE 11.5 mph - N/A   Mostly Cloudy
3:00 PM 44.6 °F 39.2 °F 33.8 °F 66% 30.37 in 9.0 mi ENE 10.4 mph - N/A   Scattered Clouds
3:33 PM 42.8 °F 37.5 °F 33.8 °F 70% 30.36 in 9.0 mi ENE 9.2 mph - N/A   Partly Cloudy
4:00 PM 42.8 °F 37.0 °F 33.8 °F 70% 30.37 in 9.0 mi ENE 10.4 mph - N/A   Partly Cloudy
5:00 PM 41.0 °F 35.8 °F 32.0 °F 70% 30.35 in 9.0 mi East 8.1 mph - N/A   Clear
6:00 PM 41.0 °F 37.1 °F 32.0 °F 70% 30.36 in 9.0 mi East 5.8 mph - N/A   Scattered Clouds
7:00 PM 41 °F - 31 °F 57% 30.37 in 10 mi ENE 3.5 mph - -  
7:00 PM 41.0 °F 39.0 °F 30.2 °F 65% 30.37 in 9.0 mi ENE 3.5 mph - N/A   Partly Cloudy
8:00 PM 39.2 °F - 32.0 °F 75% 30.36 in 9.0 mi Calm Calm - N/A   Overcast
9:00 PM 41.0 °F 39.0 °F 32.0 °F 70% 30.36 in 9.0 mi WNW 3.5 mph - N/A   Mostly Cloudy
10:00 PM 41.0 °F 39.0 °F 32.0 °F 70% 30.37 in 9.0 mi NW 3.5 mph - N/A   Mostly Cloudy
11:00 PM 39.2 °F 35.9 °F 32.0 °F 75% 30.36 in 9.0 mi NW 4.6 mph - N/A   Partly Cloudy